Tracking 27420 objects as of 28-May-2023
HD Live streaming from Space Station
objects crossing your sky now

DELTA 2 DEB

Track DELTA 2 DEB now!
10-day predictions


NORAD ID: 38677
Int'l Code: 2008-012D
Perigee: 210.5 km
Apogee: 11,197.5 km
Inclination: 40.0 °
Period: 220.1 minutes
Semi major axis: 12074 km
RCS: 0.005 m2 (small)
Launch date: March 15, 2008
Source: United States (US)
Launch site: AIR FORCE EASTERN TEST RANGE (AFETR)

Note: This is SATELLITE DEBRIS
Your satellite tracking list
Your tracking list is empty




NASA's NSSDC Master Catalog

Two Line Element Set (TLE):
1 38677U 08012D   23135.39649255  .00028850  00000-0  47149-3 0  9990
2 38677  40.0186 131.6848 4549464 238.8662 278.1021  6.54293114113038
Source of the keplerian elements: AFSPC